owner,sensor,date,latitude,longitude,vertical_datum,direction_of_sea_water_velocity,sea_water_speed,upward_sea_water_velocity,qcFlag 
TABS,ioos:station:wmo:42043:1,2008-01-01T00:00:00Z,28.9818,-94.9186,2.0,221.0207591,15.69317049,-99999.0,'11111222,11111222,99999999' 
TABS,ioos:station:wmo:42043:1,2008-01-01T00:30:00Z,28.9818,-94.9186,2.0,218.4041634,13.66690162,-99999.0,'11111222,11111222,99999999' 
TABS,ioos:station:wmo:42043:1,2008-01-01T01:00:00Z,28.9818,-94.9186,2.0,221.6887505,11.99841656,-99999.0,'11111222,11111222,99999999' 
TABS,ioos:station:wmo:42043:1,2008-01-01T01:30:00Z,28.9818,-94.9186,2.0,214.8260023,11.32920562,-99999.0,'11111222,11111222,99999999' 
TABS,ioos:station:wmo:42043:1,2008-01-01T02:00:00Z,28.9818,-94.9186,2.0,227.3904765,13.89967626,-99999.0,'11111222,11111222,99999999' 
TABS,ioos:station:wmo:42043:1,2008-01-01T02:30:00Z,28.9818,-94.9186,2.0,230.4375523,15.66929482,-99999.0,'11111222,11111222,99999999' 
TABS,ioos:station:wmo:42043:1,2008-01-01T03:00:00Z,28.9818,-94.9186,2.0,219.5760353,17.28127599,-99999.0,'11111222,11111222,99999999' 
TABS,ioos:station:wmo:42043:1,2008-01-01T03:30:00Z,28.9818,-94.9186,2.0,209.3595493,30.08406389,-99999.0,'11111222,11111222,99999999' 
TABS,ioos:station:wmo:42043:1,2008-01-01T04:00:00Z,28.9818,-94.9186,2.0,208.2308388,29.53305436,-99999.0,'11111222,11111222,99999999' 
TABS,ioos:station:wmo:42043:1,2008-01-01T04:30:00Z,28.9818,-94.9186,2.0,214.9334727,29.0065596,-99999.0,'11111222,11111222,99999999' 
TABS,ioos:station:wmo:42043:1,2008-01-01T05:00:00Z,28.9818,-94.9186,2.0,216.2864231,40.28208659,-99999.0,'11111222,11111222,99999999' 
TABS,ioos:station:wmo:42043:1,2008-01-01T05:30:00Z,28.9818,-94.9186,2.0,215.6787972,40.03464625,-99999.0,'11111222,11111222,99999999' 
TABS,ioos:station:wmo:42043:1,2008-01-01T06:00:00Z,28.9818,-94.9186,2.0,222.1200367,38.70640386,-99999.0,'11111222,11111222,99999999' 
TABS,ioos:station:wmo:42043:1,2008-01-01T06:30:00Z,28.9818,-94.9186,2.0,220.6117603,40.38811335,-99999.0,'11111222,11111222,99999999' 
TABS,ioos:station:wmo:42043:1,2008-01-01T07:00:00Z,28.9818,-94.9186,2.0,228.4914283,40.6350809,-99999.0,'11111222,11111222,99999999' 
TABS,ioos:station:wmo:42043:1,2008-01-01T07:30:00Z,28.9818,-94.9186,2.0,229.5588312,43.76697613,-99999.0,'11111222,11111222,99999999' 
TABS,ioos:station:wmo:42043:1,2008-01-01T08:00:00Z,28.9818,-94.9186,2.0,234.7209913,36.51608139,-99999.0,'11111222,11111222,99999999' 
TABS,ioos:station:wmo:42043:1,2008-01-01T08:30:00Z,28.9818,-94.9186,2.0,233.8739449,37.26514323,-99999.0,'11111222,11111222,99999999' 
TABS,ioos:station:wmo:42043:1,2008-01-01T09:00:00Z,28.9818,-94.9186,2.0,231.2749654,48.25928512,-99999.0,'11111222,11111222,99999999' 
TABS,ioos:station:wmo:42043:1,2008-01-01T09:30:00Z,28.9818,-94.9186,2.0,235.5327609,41.11815779,-99999.0,'11111222,11111222,99999999' 
TABS,ioos:station:wmo:42043:1,2008-01-01T10:00:00Z,28.9818,-94.9186,2.0,238.7823337,41.07774337,-99999.0,'11111222,11111222,99999999' 
TABS,ioos:station:wmo:42043:1,2008-01-01T10:30:00Z,28.9818,-94.9186,2.0,238.4681118,37.55488916,-99999.0,'11111222,11111222,99999999' 
TABS,ioos:station:wmo:42043:1,2008-01-01T11:00:00Z,28.9818,-94.9186,2.0,236.8661214,38.54793509,-99999.0,'11111222,11111222,99999999' 
TABS,ioos:station:wmo:42043:1,2008-01-01T11:30:00Z,28.9818,-94.9186,2.0,228.0021777,37.25910627,-99999.0,'11111222,11111222,99999999' 
TABS,ioos:station:wmo:42043:1,2008-01-01T12:00:00Z,28.9818,-94.9186,2.0,228.2565291,35.59667962,-99999.0,'11111222,11111222,99999999' 
TABS,ioos:station:wmo:42043:1,2008-01-01T12:30:00Z,28.9818,-94.9186,2.0,245.2429369,34.72106709,-99999.0,'11111222,11111222,99999999' 
TABS,ioos:station:wmo:42043:1,2008-01-01T13:00:00Z,28.9818,-94.9186,2.0,232.8896542,32.45228497,-99999.0,'11111222,11111222,99999999' 
TABS,ioos:station:wmo:42043:1,2008-01-01T13:30:00Z,28.9818,-94.9186,2.0,239.9892972,39.8875181,-99999.0,'11111222,11111222,99999999' 
TABS,ioos:station:wmo:42043:1,2008-01-01T14:00:00Z,28.9818,-94.9186,2.0,253.8391721,31.47364771,-99999.0,'11111222,11111222,99999999' 
TABS,ioos:station:wmo:42043:1,2008-01-01T14:30:00Z,28.9818,-94.9186,2.0,237.4364322,33.42437733,-99999.0,'11111222,11111222,99999999' 
TABS,ioos:station:wmo:42043:1,2008-01-01T15:00:00Z,28.9818,-94.9186,2.0,236.1194063,31.75121415,-99999.0,'11111222,11111222,99999999' 
TABS,ioos:station:wmo:42043:1,2008-01-01T15:30:00Z,28.9818,-94.9186,2.0,243.058511,31.34140393,-99999.0,'11111222,11111222,99999999' 
TABS,ioos:station:wmo:42043:1,2008-01-01T16:00:00Z,28.9818,-94.9186,2.0,240.4267697,38.01185605,-99999.0,'11111222,11111222,99999999' 
TABS,ioos:station:wmo:42043:1,2008-01-01T16:30:00Z,28.9818,-94.9186,2.0,244.4970123,34.49056973,-99999.0,'11111222,11111222,99999999' 
TABS,ioos:station:wmo:42043:1,2008-01-01T17:00:00Z,28.9818,-94.9186,2.0,235.1277221,33.61643646,-99999.0,'11111222,11111222,99999999' 
TABS,ioos:station:wmo:42043:1,2008-01-01T17:30:00Z,28.9818,-94.9186,2.0,242.5495487,29.24231352,-99999.0,'11111222,11111222,99999999' 
TABS,ioos:station:wmo:42043:1,2008-01-01T18:00:00Z,28.9818,-94.9186,2.0,243.3603489,27.61099057,-99999.0,'11111222,11111222,99999999' 
TABS,ioos:station:wmo:42043:1,2008-01-01T18:30:00Z,28.9818,-94.9186,2.0,240.428911,32.23925713,-99999.0,'11111222,11111222,99999999' 
TABS,ioos:station:wmo:42043:1,2008-01-01T19:00:00Z,28.9818,-94.9186,2.0,229.8928029,34.81755017,-99999.0,'11111222,11111222,99999999' 
TABS,ioos:station:wmo:42043:1,2008-01-01T19:30:00Z,28.9818,-94.9186,2.0,234.7834749,39.15630856,-99999.0,'11111222,11111222,99999999' 
TABS,ioos:station:wmo:42043:1,2008-01-01T20:00:00Z,28.9818,-94.9186,2.0,237.5231152,32.87058564,-99999.0,'11111222,11111222,99999999' 
TABS,ioos:station:wmo:42043:1,2008-01-01T20:30:00Z,28.9818,-94.9186,2.0,236.0978965,34.53032291,-99999.0,'11111222,11111222,99999999' 
TABS,ioos:station:wmo:42043:1,2008-01-01T21:00:00Z,28.9818,-94.9186,2.0,235.2310325,35.5098775,-99999.0,'11111222,11111222,99999999' 
TABS,ioos:station:wmo:42043:1,2008-01-01T21:30:00Z,28.9818,-94.9186,2.0,234.4088837,32.61212658,-99999.0,'11111222,11111222,99999999' 
TABS,ioos:station:wmo:42043:1,2008-01-01T22:00:00Z,28.9818,-94.9186,2.0,233.7564653,34.74207823,-99999.0,'11111222,11111222,99999999' 
TABS,ioos:station:wmo:42043:1,2008-01-01T22:30:00Z,28.9818,-94.9186,2.0,231.2538734,32.25928858,-99999.0,'11111222,11111222,99999999' 
TABS,ioos:station:wmo:42043:1,2008-01-01T23:00:00Z,28.9818,-94.9186,2.0,228.9127527,32.120962,-99999.0,'11111222,11111222,99999999' 
TABS,ioos:station:wmo:42043:1,2008-01-01T23:30:00Z,28.9818,-94.9186,2.0,229.819465,29.95998999,-99999.0,'11111222,11111222,99999999' 
TABS,ioos:station:wmo:42043:1,2008-01-02T00:00:00Z,28.9818,-94.9186,2.0,239.1569931,24.34256355,-99999.0,'11111222,11111222,99999999' 
TABS,ioos:station:wmo:42043:1,2008-01-02T00:30:00Z,28.9818,-94.9186,2.0,218.4131895,30.51507332,-99999.0,'11111222,11111222,99999999' 
TABS,ioos:station:wmo:42043:1,2008-01-02T01:00:00Z,28.9818,-94.9186,2.0,230.0313983,24.34759126,-99999.0,'11111222,11111222,99999999' 
TABS,ioos:station:wmo:42043:1,2008-01-02T01:30:00Z,28.9818,-94.9186,2.0,230.0595413,24.53321422,-99999.0,'11111222,11111222,99999999' 
TABS,ioos:station:wmo:42043:1,2008-01-02T02:00:00Z,28.9818,-94.9186,2.0,225.5088147,23.87286744,-99999.0,'11111222,11111222,99999999' 
TABS,ioos:station:wmo:42043:1,2008-01-02T02:30:00Z,28.9818,-94.9186,2.0,226.1311995,19.33606992,-99999.0,'11111222,11111222,99999999' 
TABS,ioos:station:wmo:42043:1,2008-01-02T03:00:00Z,28.9818,-94.9186,2.0,223.7677098,19.73284065,-99999.0,'11111222,11111222,99999999' 
TABS,ioos:station:wmo:42043:1,2008-01-02T03:30:00Z,28.9818,-94.9186,2.0,222.9602894,21.65825709,-99999.0,'11111222,11111222,99999999' 
TABS,ioos:station:wmo:42043:1,2008-01-02T04:00:00Z,28.9818,-94.9186,2.0,221.8995146,21.44257447,-99999.0,'11111222,11111222,99999999' 
TABS,ioos:station:wmo:42043:1,2008-01-02T04:30:00Z,28.9818,-94.9186,2.0,228.0665021,21.27903428,-99999.0,'11111222,11111222,99999999' 
TABS,ioos:station:wmo:42043:1,2008-01-02T05:00:00Z,28.9818,-94.9186,2.0,222.2188392,23.31955831,-99999.0,'11111222,11111222,99999999' 
TABS,ioos:station:wmo:42043:1,2008-01-02T05:30:00Z,28.9818,-94.9186,2.0,222.6387919,26.26302534,-99999.0,'11111222,11111222,99999999' 
TABS,ioos:station:wmo:42043:1,2008-01-02T06:00:00Z,28.9818,-94.9186,2.0,214.8313984,28.39796648,-99999.0,'11111222,11111222,99999999' 
TABS,ioos:station:wmo:42043:1,2008-01-02T06:30:00Z,28.9818,-94.9186,2.0,214.2774681,25.95856121,-99999.0,'11111222,11111222,99999999' 
TABS,ioos:station:wmo:42043:1,2008-01-02T07:00:00Z,28.9818,-94.9186,2.0,215.7185666,28.67378594,-99999.0,'11111222,11111222,99999999' 
TABS,ioos:station:wmo:42043:1,2008-01-02T07:30:00Z,28.9818,-94.9186,2.0,225.1608325,27.6550556,-99999.0,'11111222,11111222,99999999' 
TABS,ioos:station:wmo:42043:1,2008-01-02T08:00:00Z,28.9818,-94.9186,2.0,223.0102734,28.92395893,-99999.0,'11111222,11111222,99999999' 
TABS,ioos:station:wmo:42043:1,2008-01-02T08:30:00Z,28.9818,-94.9186,2.0,220.7435494,31.82271202,-99999.0,'11111222,11111222,99999999' 
TABS,ioos:station:wmo:42043:1,2008-01-02T09:00:00Z,28.9818,-94.9186,2.0,223.9972714,31.9307579,-99999.0,'11111222,11111222,99999999' 
TABS,ioos:station:wmo:42043:1,2008-01-02T09:30:00Z,28.9818,-94.9186,2.0,231.5711201,23.60273289,-99999.0,'11111222,11111222,99999999' 
TABS,ioos:station:wmo:42043:1,2008-01-02T10:00:00Z,28.9818,-94.9186,2.0,222.7835162,25.23430205,-99999.0,'11111222,11111222,99999999' 
TABS,ioos:station:wmo:42043:1,2008-01-02T10:30:00Z,28.9818,-94.9186,2.0,219.8833429,18.79199032,-99999.0,'11111222,11111222,99999999' 
TABS,ioos:station:wmo:42043:1,2008-01-02T11:00:00Z,28.9818,-94.9186,2.0,219.1742572,18.25276417,-99999.0,'11111222,11111222,99999999' 
TABS,ioos:station:wmo:42043:1,2008-01-02T11:30:00Z,28.9818,-94.9186,2.0,217.1765047,17.92225711,-99999.0,'11111222,11111222,99999999' 
TABS,ioos:station:wmo:42043:1,2008-01-02T12:00:00Z,28.9818,-94.9186,2.0,223.2427001,12.68438804,-99999.0,'11111222,11111222,99999999' 
TABS,ioos:station:wmo:42043:1,2008-01-02T12:30:00Z,28.9818,-94.9186,2.0,226.7566685,6.918757114,-99999.0,'11133222,11111222,99999999' 
TABS,ioos:station:wmo:42043:1,2008-01-02T13:00:00Z,28.9818,-94.9186,2.0,204.7821971,5.463121818,-99999.0,'11133222,11111222,99999999' 
TABS,ioos:station:wmo:42043:1,2008-01-02T13:30:00Z,28.9818,-94.9186,2.0,218.357465,3.851298482,-99999.0,'11133222,11111222,99999999' 
TABS,ioos:station:wmo:42043:1,2008-01-02T14:00:00Z,28.9818,-94.9186,2.0,229.7842028,3.221490338,-99999.0,'11133222,11111222,99999999' 
TABS,ioos:station:wmo:42043:1,2008-01-02T14:30:00Z,28.9818,-94.9186,2.0,259.6606927,3.008853602,-99999.0,'11133222,11111222,99999999' 
TABS,ioos:station:wmo:42043:1,2008-01-02T15:00:00Z,28.9818,-94.9186,2.0,142.5829009,2.304105032,-99999.0,'11133222,11111222,99999999' 
TABS,ioos:station:wmo:42043:1,2008-01-02T15:30:00Z,28.9818,-94.9186,2.0,129.3484131,2.72855273,-99999.0,'11133222,11111222,99999999' 
TABS,ioos:station:wmo:42043:1,2008-01-02T16:00:00Z,28.9818,-94.9186,2.0,48.62158146,5.597320788,-99999.0,'11133222,11111222,99999999' 
TABS,ioos:station:wmo:42043:1,2008-01-02T16:30:00Z,28.9818,-94.9186,2.0,103.6033088,6.420101245,-99999.0,'11133222,11111222,99999999' 
TABS,ioos:station:wmo:42043:1,2008-01-02T17:00:00Z,28.9818,-94.9186,2.0,105.1301654,4.827338811,-99999.0,'11133222,11111222,99999999' 
TABS,ioos:station:wmo:42043:1,2008-01-02T17:30:00Z,28.9818,-94.9186,2.0,79.34519368,6.003507308,-99999.0,'11133222,11111222,99999999' 
TABS,ioos:station:wmo:42043:1,2008-01-02T18:00:00Z,28.9818,-94.9186,2.0,46.33232197,1.824828759,-99999.0,'11133222,11111222,99999999' 
TABS,ioos:station:wmo:42043:1,2008-01-02T18:30:00Z,28.9818,-94.9186,2.0,94.08560723,4.210700654,-99999.0,'11133222,11111222,99999999' 
TABS,ioos:station:wmo:42043:1,2008-01-02T19:00:00Z,28.9818,-94.9186,2.0,117.2187007,5.487667993,-99999.0,'11133222,11111222,99999999' 
TABS,ioos:station:wmo:42043:1,2008-01-02T19:30:00Z,28.9818,-94.9186,2.0,161.2411831,7.276517024,-99999.0,'11133222,11111222,99999999' 
TABS,ioos:station:wmo:42043:1,2008-01-02T20:00:00Z,28.9818,-94.9186,2.0,165.192832,9.195357524,-99999.0,'11133222,11111222,99999999' 
TABS,ioos:station:wmo:42043:1,2008-01-02T20:30:00Z,28.9818,-94.9186,2.0,172.2036256,5.823830355,-99999.0,'11133222,11111222,99999999' 
TABS,ioos:station:wmo:42043:1,2008-01-02T21:00:00Z,28.9818,-94.9186,2.0,178.0010699,15.76959416,-99999.0,'11111222,11111222,99999999' 
TABS,ioos:station:wmo:42043:1,2008-01-02T21:30:00Z,28.9818,-94.9186,2.0,158.008711,14.02007489,-99999.0,'11111222,11111222,99999999' 
TABS,ioos:station:wmo:42043:1,2008-01-02T22:00:00Z,28.9818,-94.9186,2.0,161.5648838,11.16284014,-99999.0,'11111222,11111222,99999999' 
TABS,ioos:station:wmo:42043:1,2008-01-02T22:30:00Z,28.9818,-94.9186,2.0,168.0987402,9.504293767,-99999.0,'11133222,11111222,99999999' 
TABS,ioos:station:wmo:42043:1,2008-01-02T23:00:00Z,28.9818,-94.9186,2.0,147.5539693,8.685879345,-99999.0,'11133222,11111222,99999999' 
TABS,ioos:station:wmo:42043:1,2008-01-02T23:30:00Z,28.9818,-94.9186,2.0,165.8754996,18.93235326,-99999.0,'11111222,11111222,99999999' 
TABS,ioos:station:wmo:42043:1,2008-01-03T00:00:00Z,28.9818,-94.9186,2.0,163.4940871,14.74773542,-99999.0,'11111222,11111222,99999999' 
TABS,ioos:station:wmo:42043:1,2008-01-03T00:30:00Z,28.9818,-94.9186,2.0,164.6657628,11.45789684,-99999.0,'11111222,11111222,99999999' 
TABS,ioos:station:wmo:42043:1,2008-01-03T01:00:00Z,28.9818,-94.9186,2.0,208.469551,23.41115119,-99999.0,'11111222,11111222,99999999' 
TABS,ioos:station:wmo:42043:1,2008-01-03T01:30:00Z,28.9818,-94.9186,2.0,215.4043244,25.02818411,-99999.0,'11111222,11111222,99999999' 
TABS,ioos:station:wmo:42043:1,2008-01-03T02:00:00Z,28.9818,-94.9186,2.0,223.718077,23.07866764,-99999.0,'11111222,11111222,99999999' 
TABS,ioos:station:wmo:42043:1,2008-01-03T02:30:00Z,28.9818,-94.9186,2.0,226.1753627,22.74534238,-99999.0,'11111222,11111222,99999999' 
TABS,ioos:station:wmo:42043:1,2008-01-03T03:00:00Z,28.9818,-94.9186,2.0,222.9933325,17.77341835,-99999.0,'11111222,11111222,99999999' 
TABS,ioos:station:wmo:42043:1,2008-01-03T03:30:00Z,28.9818,-94.9186,2.0,226.0506659,18.89,-99999.0,'11111222,11111222,99999999' 
TABS,ioos:station:wmo:42043:1,2008-01-03T04:00:00Z,28.9818,-94.9186,2.0,223.1817506,17.60875067,-99999.0,'11111222,11111222,99999999' 
TABS,ioos:station:wmo:42043:1,2008-01-03T04:30:00Z,28.9818,-94.9186,2.0,212.0676802,20.3795314,-99999.0,'11111222,11111222,99999999' 
TABS,ioos:station:wmo:42043:1,2008-01-03T05:00:00Z,28.9818,-94.9186,2.0,219.8136404,17.52312757,-99999.0,'11111222,11111222,99999999' 
TABS,ioos:station:wmo:42043:1,2008-01-03T05:30:00Z,28.9818,-94.9186,2.0,226.0266011,26.03985407,-99999.0,'11111222,11111222,99999999' 
TABS,ioos:station:wmo:42043:1,2008-01-03T06:00:00Z,28.9818,-94.9186,2.0,235.3763958,25.20337279,-99999.0,'11111222,11111222,99999999' 
TABS,ioos:station:wmo:42043:1,2008-01-03T06:30:00Z,28.9818,-94.9186,2.0,230.8055764,24.95452865,-99999.0,'11111222,11111222,99999999' 
TABS,ioos:station:wmo:42043:1,2008-01-03T07:00:00Z,28.9818,-94.9186,2.0,229.4596531,26.37008153,-99999.0,'11111222,11111222,99999999' 
TABS,ioos:station:wmo:42043:1,2008-01-03T07:30:00Z,28.9818,-94.9186,2.0,230.6929347,25.58914027,-99999.0,'11111222,11111222,99999999' 
TABS,ioos:station:wmo:42043:1,2008-01-03T08:00:00Z,28.9818,-94.9186,2.0,232.9866159,29.61809244,-99999.0,'11111222,11111222,99999999' 
TABS,ioos:station:wmo:42043:1,2008-01-03T08:30:00Z,28.9818,-94.9186,2.0,232.3530621,25.52434524,-99999.0,'11111222,11111222,99999999' 
TABS,ioos:station:wmo:42043:1,2008-01-03T09:00:00Z,28.9818,-94.9186,2.0,234.035379,31.38191995,-99999.0,'11111222,11111222,99999999' 
TABS,ioos:station:wmo:42043:1,2008-01-03T09:30:00Z,28.9818,-94.9186,2.0,232.5632178,30.13747335,-99999.0,'11111222,11111222,99999999' 
TABS,ioos:station:wmo:42043:1,2008-01-03T10:00:00Z,28.9818,-94.9186,2.0,237.8439777,28.69106133,-99999.0,'11111222,11111222,99999999' 
TABS,ioos:station:wmo:42043:1,2008-01-03T10:30:00Z,28.9818,-94.9186,2.0,237.9256532,27.4380648,-99999.0,'11111222,11111222,99999999' 
TABS,ioos:station:wmo:42043:1,2008-01-03T11:00:00Z,28.9818,-94.9186,2.0,235.4512928,31.10553005,-99999.0,'11111222,11111222,99999999' 
TABS,ioos:station:wmo:42043:1,2008-01-03T11:30:00Z,28.9818,-94.9186,2.0,246.958265,28.23230242,-99999.0,'11111222,11111222,99999999' 
TABS,ioos:station:wmo:42043:1,2008-01-03T12:00:00Z,28.9818,-94.9186,2.0,242.4036743,26.09913792,-99999.0,'11111222,11111222,99999999' 
TABS,ioos:station:wmo:42043:1,2008-01-03T12:30:00Z,28.9818,-94.9186,2.0,251.8755923,27.38889008,-99999.0,'11111222,11111222,99999999' 
TABS,ioos:station:wmo:42043:1,2008-01-03T13:00:00Z,28.9818,-94.9186,2.0,252.9351212,23.13867974,-99999.0,'11111222,11111222,99999999' 
TABS,ioos:station:wmo:42043:1,2008-01-03T13:30:00Z,28.9818,-94.9186,2.0,258.6945356,23.10836429,-99999.0,'11111222,11111222,99999999' 
TABS,ioos:station:wmo:42043:1,2008-01-03T14:00:00Z,28.9818,-94.9186,2.0,271.0468004,30.66511373,-99999.0,'11111222,11111222,99999999' 
TABS,ioos:station:wmo:42043:1,2008-01-03T14:30:00Z,28.9818,-94.9186,2.0,269.8043647,23.48013629,-99999.0,'11111222,11111222,99999999' 
TABS,ioos:station:wmo:42043:1,2008-01-03T15:00:00Z,28.9818,-94.9186,2.0,270.9499856,21.72298322,-99999.0,'11111222,11111222,99999999' 
TABS,ioos:station:wmo:42043:1,2008-01-03T15:30:00Z,28.9818,-94.9186,2.0,274.7357247,25.19600167,-99999.0,'11111222,11111222,99999999' 
TABS,ioos:station:wmo:42043:1,2008-01-03T16:00:00Z,28.9818,-94.9186,2.0,268.9812264,19.69311047,-99999.0,'11111222,11111222,99999999' 
TABS,ioos:station:wmo:42043:1,2008-01-03T16:30:00Z,28.9818,-94.9186,2.0,276.1213339,33.76247769,-99999.0,'11111222,11111222,99999999' 
TABS,ioos:station:wmo:42043:1,2008-01-03T17:00:00Z,28.9818,-94.9186,2.0,271.866969,33.1575934,-99999.0,'11111222,11111222,99999999' 
TABS,ioos:station:wmo:42043:1,2008-01-03T17:30:00Z,28.9818,-94.9186,2.0,271.4232952,32.62005825,-99999.0,'11111222,11111222,99999999' 
TABS,ioos:station:wmo:42043:1,2008-01-03T18:00:00Z,28.9818,-94.9186,2.0,263.0086825,21.1975942,-99999.0,'11111222,11111222,99999999' 
TABS,ioos:station:wmo:42043:1,2008-01-03T18:30:00Z,28.9818,-94.9186,2.0,267.695206,26.61152006,-99999.0,'11111222,11111222,99999999' 
TABS,ioos:station:wmo:42043:1,2008-01-03T19:00:00Z,28.9818,-94.9186,2.0,259.6176232,24.58245919,-99999.0,'11111222,11111222,99999999' 
TABS,ioos:station:wmo:42043:1,2008-01-03T19:30:00Z,28.9818,-94.9186,2.0,259.7337287,30.24416803,-99999.0,'11111222,11111222,99999999' 
TABS,ioos:station:wmo:42043:1,2008-01-03T20:00:00Z,28.9818,-94.9186,2.0,251.9119155,26.08926982,-99999.0,'11111222,11111222,99999999' 
TABS,ioos:station:wmo:42043:1,2008-01-03T20:30:00Z,28.9818,-94.9186,2.0,254.6641567,36.90400656,-99999.0,'11111222,11111222,99999999' 
TABS,ioos:station:wmo:42043:1,2008-01-03T21:00:00Z,28.9818,-94.9186,2.0,245.0905852,34.66458712,-99999.0,'11111222,11111222,99999999' 
TABS,ioos:station:wmo:42043:1,2008-01-03T21:30:00Z,28.9818,-94.9186,2.0,254.2686187,30.83491527,-99999.0,'11111222,11111222,99999999' 
TABS,ioos:station:wmo:42043:1,2008-01-03T22:00:00Z,28.9818,-94.9186,2.0,244.3669866,37.1012803,-99999.0,'11111222,11111222,99999999' 
TABS,ioos:station:wmo:42043:1,2008-01-03T22:30:00Z,28.9818,-94.9186,2.0,239.7520532,32.65588155,-99999.0,'11111222,11111222,99999999' 
TABS,ioos:station:wmo:42043:1,2008-01-03T23:00:00Z,28.9818,-94.9186,2.0,235.2101597,26.88572112,-99999.0,'11111222,11111222,99999999' 
TABS,ioos:station:wmo:42043:1,2008-01-03T23:30:00Z,28.9818,-94.9186,2.0,251.9977526,29.70412261,-99999.0,'11111222,11111222,99999999' 
TABS,ioos:station:wmo:42043:1,2008-01-04T00:00:00Z,28.9818,-94.9186,2.0,239.8272473,30.91899901,-99999.0,'11111222,11111222,99999999' 
TABS,ioos:station:wmo:42043:1,2008-01-04T00:30:00Z,28.9818,-94.9186,2.0,235.9696584,28.98359536,-99999.0,'11111222,11111222,99999999' 
TABS,ioos:station:wmo:42043:1,2008-01-04T01:00:00Z,28.9818,-94.9186,2.0,244.6664706,29.33057449,-99999.0,'11111222,11111222,99999999' 
TABS,ioos:station:wmo:42043:1,2008-01-04T01:30:00Z,28.9818,-94.9186,2.0,231.7713656,27.16563454,-99999.0,'11111222,11111222,99999999' 
TABS,ioos:station:wmo:42043:1,2008-01-04T02:00:00Z,28.9818,-94.9186,2.0,237.7249007,28.63403918,-99999.0,'11111222,11111222,99999999' 
TABS,ioos:station:wmo:42043:1,2008-01-04T02:30:00Z,28.9818,-94.9186,2.0,241.9347933,26.48411788,-99999.0,'11111222,11111222,99999999' 
TABS,ioos:station:wmo:42043:1,2008-01-04T03:00:00Z,28.9818,-94.9186,2.0,251.174323,20.88732869,-99999.0,'11111222,11111222,99999999' 
TABS,ioos:station:wmo:42043:1,2008-01-04T03:30:00Z,28.9818,-94.9186,2.0,242.378796,25.96963034,-99999.0,'11111222,11111222,99999999' 
TABS,ioos:station:wmo:42043:1,2008-01-04T04:00:00Z,28.9818,-94.9186,2.0,246.3076117,24.09037152,-99999.0,'11111222,11111222,99999999' 
TABS,ioos:station:wmo:42043:1,2008-01-04T04:30:00Z,28.9818,-94.9186,2.0,246.798052,25.15437338,-99999.0,'11111222,11111222,99999999' 
TABS,ioos:station:wmo:42043:1,2008-01-04T05:00:00Z,28.9818,-94.9186,2.0,245.1264715,33.47511464,-99999.0,'11111222,11111222,99999999' 
TABS,ioos:station:wmo:42043:1,2008-01-04T05:30:00Z,28.9818,-94.9186,2.0,235.3597798,32.12432879,-99999.0,'11111222,11111222,99999999' 
TABS,ioos:station:wmo:42043:1,2008-01-04T06:00:00Z,28.9818,-94.9186,2.0,227.1336882,30.19318632,-99999.0,'11111222,11111222,99999999' 
TABS,ioos:station:wmo:42043:1,2008-01-04T06:30:00Z,28.9818,-94.9186,2.0,228.2967973,29.50691105,-99999.0,'11111222,11111222,99999999' 
TABS,ioos:station:wmo:42043:1,2008-01-04T07:00:00Z,28.9818,-94.9186,2.0,222.3396313,31.99570284,-99999.0,'11111222,11111222,99999999' 
TABS,ioos:station:wmo:42043:1,2008-01-04T07:30:00Z,28.9818,-94.9186,2.0,229.4372961,30.34098548,-99999.0,'11111222,11111222,99999999' 
TABS,ioos:station:wmo:42043:1,2008-01-04T08:00:00Z,28.9818,-94.9186,2.0,226.9186659,32.94136609,-99999.0,'11111222,11111222,99999999' 
TABS,ioos:station:wmo:42043:1,2008-01-04T08:30:00Z,28.9818,-94.9186,2.0,231.3056622,36.63056238,-99999.0,'11111222,11111222,99999999' 
TABS,ioos:station:wmo:42043:1,2008-01-04T09:00:00Z,28.9818,-94.9186,2.0,225.2383244,37.34970415,-99999.0,'11111222,11111222,99999999' 
TABS,ioos:station:wmo:42043:1,2008-01-04T09:30:00Z,28.9818,-94.9186,2.0,224.5331868,38.21331705,-99999.0,'11111222,11111222,99999999' 
TABS,ioos:station:wmo:42043:1,2008-01-04T10:00:00Z,28.9818,-94.9186,2.0,225.4853166,39.21047947,-99999.0,'11111222,11111222,99999999' 
TABS,ioos:station:wmo:42043:1,2008-01-04T10:30:00Z,28.9818,-94.9186,2.0,229.9533008,43.56493315,-99999.0,'11111222,11111222,99999999' 
TABS,ioos:station:wmo:42043:1,2008-01-04T11:00:00Z,28.9818,-94.9186,2.0,224.2937073,44.76325725,-99999.0,'11111222,11111222,99999999' 
TABS,ioos:station:wmo:42043:1,2008-01-04T11:30:00Z,28.9818,-94.9186,2.0,224.0467135,43.36578605,-99999.0,'11111222,11111222,99999999' 
TABS,ioos:station:wmo:42043:1,2008-01-04T12:00:00Z,28.9818,-94.9186,2.0,222.5229407,41.23456075,-99999.0,'11111222,11111222,99999999' 
TABS,ioos:station:wmo:42043:1,2008-01-04T12:30:00Z,28.9818,-94.9186,2.0,221.3202061,41.64959063,-99999.0,'11111222,11111222,99999999' 
TABS,ioos:station:wmo:42043:1,2008-01-04T13:00:00Z,28.9818,-94.9186,2.0,219.9614095,42.75423371,-99999.0,'11111222,11111222,99999999' 
TABS,ioos:station:wmo:42043:1,2008-01-04T13:30:00Z,28.9818,-94.9186,2.0,223.9901338,44.5475712,-99999.0,'11111222,11111222,99999999' 
TABS,ioos:station:wmo:42043:1,2008-01-04T14:00:00Z,28.9818,-94.9186,2.0,227.4489448,43.68253656,-99999.0,'11111222,11111222,99999999' 
TABS,ioos:station:wmo:42043:1,2008-01-04T14:30:00Z,28.9818,-94.9186,2.0,231.7429819,38.17918281,-99999.0,'11111222,11111222,99999999' 
TABS,ioos:station:wmo:42043:1,2008-01-04T15:00:00Z,28.9818,-94.9186,2.0,230.2673691,43.05371645,-99999.0,'11111222,11111222,99999999' 
TABS,ioos:station:wmo:42043:1,2008-01-04T15:30:00Z,28.9818,-94.9186,2.0,237.0500111,41.4229224,-99999.0,'11111222,11111222,99999999' 
TABS,ioos:station:wmo:42043:1,2008-01-04T16:00:00Z,28.9818,-94.9186,2.0,235.7599765,35.5634658,-99999.0,'11111222,11111222,99999999' 